Find Starlink 30414

NORAD ID: 57859 Int'l Des: 2023-141 Owner: SPXS Country: US Constellation: starlink operational
LEOCIRCULAR

当前视图

正在加载3D地球...

About Starlink 30414

Starlink 30414 (NORAD 57859) is a starlink constellation satellite (v2 mini) launched Sep 12, 2023 by SPXS of US. It operates in LEO, CIRCULAR orbit with a mass of 730.00 kg.

即将过境

Passes for default location (London). Set your location on the main map for personalized predictions.

高度历史

Loading altitude history...

两行轨道根数

1 57859U 23141V 26263.91023001 .00000464 00000-0 24868-4 0 9996
2 57859 53.1610 95.4635 0000722 95.5171 264.5914 15.34391440170242
Epoch: Sep 20, 2026 • Age: 24 hours

当前状态

高度 464.0 km
远地点 / 近地点 N/A
速度 7.64 km/s
星下点 -2.71°S, 59.38°W
发射日期 Sep 12, 2023
运行时间 3 years
类型 internet

技术详情

分类 Payload
质量 730.00 kg
干质量 700.00 kg
长度 0.30 m
跨度 29.00 m
形状 ? Box + pan
制造商 SPXS
平台类型 Starlink V2M
阶段状态 In Orbit
所有者/国家 SPXS/US

Most Searched